EW1517 Weather Reports


time (UTC)temp
C
wind
direction
speed
KPH
gust
KPH
rain 1hr
cm
rain 24hr
cm
rain mn
cm
humidity
%
barometer
mb
20260503013905 20 155 8.0 12.9 0.03 0.20 0.20 86 1018.3
20260503013404 20 142 4.8 8.0 0.03 0.20 0.20 87 1018.5
20260503012906 20 146 1.6 4.8 0.03 0.20 0.20 88 1018.3
20260503012405 20 146 1.6 8.0 0.03 0.20 0.20 87 1018.3
20260503011910 20 145 3.2 17.7 0.05 0.20 0.20 86 1018.2
20260503011404 20 128 6.4 17.7 0.05 0.20 0.20 86 1018.1
20260503010904 20 101 4.8 14.5 0.05 0.20 0.20 86 1018.2
20260503010402 20 127 4.8 16.1 0.05 0.20 0.20 87 1018.2
20260503010218 20 110 9.7 17.7 0.05 0.15 0.20 87 1018.3
20260503005354 20 110 9.7 17.7 0.08 0.15 0.20 87 1018.2
20260503005215 20 98 8.0 20.9 0.08 0.15 0.18 87 1018.2
20260503004349 20 115 14.5 20.9 0.08 0.15 0.18 87 1018.2
20260503003845 20 98 11.3 24.1 0.08 0.15 0.18 88 1018.1
20260503003702 20 85 14.5 24.1 0.08 0.15 0.18 88 1018.2
20260503002839 20 106 14.5 22.5 0.10 0.15 0.18 88 1018.2
20260503002338 20 80 16.1 22.5 0.10 0.15 0.18 89 1018.2
20260503001838 20 115 9.7 17.7 0.08 0.15 0.15 89 1018.1
20260503001333 20 115 6.4 17.7 0.08 0.15 0.15 89 1018.1
20260503000831 20 100 9.7 22.5 0.08 0.15 0.15 88 1018.2
20260503000331 20 107 11.3 22.5 0.05 0.15 0.15 88 1018.1
20260502235832 20 96 9.7 17.7 0.05 0.08 0.15 88 1018.1
20260502235332 20 110 11.3 17.7 0.05 0.08 0.13 87 1018.1
20260502234830 20 115 11.3 17.7 0.05 0.08 0.13 87 1018.1
20260502234330 21 107 8.0 16.1 0.03 0.08 0.10 87 1018.0
20260502233832 21 110 11.3 16.1 0.03 0.08 0.10 87 1018.0
20260502233331 21 124 9.7 16.1 0.03 0.08 0.08 87 1018.0
20260502233200 21 117 9.7 17.7 0.03 0.08 0.08 87 1017.9
20260502232331 21 146 6.4 19.3 0.03 0.08 0.08 87 1017.9
20260502232205 21 119 11.3 19.3 0.03 0.08 0.08 87 1017.8
20260502231748 21 113 9.7 20.9 0.03 0.08 0.08 87 1017.8
20260502230832 21 118 11.3 20.9 0.03 0.08 0.08 87 1017.7
20260502230719 21 119 11.3 19.3 0.03 0.08 0.08 88 1017.7
20260502225832 21 124 9.7 19.3 0.03 0.05 0.08 88 1017.7
20260502225332 21 107 6.4 14.5 0.03 0.05 0.08 89 1017.5
20260502224832 21 103 8.0 11.3 0.03 0.05 0.08 89 1017.5
20260502224733 21 111 4.8 12.9 0.03 0.05 0.08 89 1017.5
20260502223831 21 126 8.0 14.5 0.03 0.05 0.08 89 1017.5
20260502223331 21 117 6.4 14.5 0.00 0.05 0.05 89 1017.5
20260502223150 21 136 4.8 11.3 0.00 0.05 0.05 89 1017.6
20260502222648 21 147 4.8 11.3 0.00 0.05 0.05 90 1017.6
20260502221832 21 135 6.4 11.3 0.00 0.05 0.05 90 1017.6
20260502221330 21 148 3.2 9.7 0.00 0.05 0.05 91 1017.6
20260502220834 21 152 4.8 9.7 0.00 0.05 0.05 91 1017.6
20260502220748 21 154 3.2 6.4 0.00 0.05 0.05 92 1017.5
20260502220416 21 155 4.8 9.7 0.00 0.05 0.05 91 1017.6
20260502215445 20 151 3.2 6.4 0.00 0.05 0.05 92 1017.5
20260502215420 21 153 3.2 6.4 0.00 0.05 0.05 92 1017.6
20260502214722 20 151 3.2 6.4 0.03 0.05 0.05 92 1017.5
20260502213832 21 149 3.2 6.4 0.05 0.05 0.05 92 1017.5
20260502213332 20 148 3.2 4.8 0.05 0.05 0.05 92 1017.2
20260502212830 20 148 0.0 4.8 0.05 0.05 0.05 93 1017.2
20260502212333 20 148 3.2 4.8 0.05 0.05 0.05 92 1017.2
20260502211824 20 148 3.2 6.4 0.05 0.05 0.05 92 1017.3
20260502211320 20 148 1.6 8.0 0.05 0.05 0.05 92 1017.3
20260502210820 20 153 4.8 9.7 0.05 0.05 0.05 92 1017.5
20260502210315 21 154 4.8 9.7 0.05 0.05 0.05 91 1017.5
20260502205810 21 148 6.4 9.7 0.05 0.00 0.05 91 1017.5
20260502205311 21 154 4.8 12.9 0.05 0.00 0.05 90 1017.6
20260502205129 21 150 8.0 12.9 0.05 0.00 0.05 89 1017.7
20260502204305 21 109 3.2 14.5 0.05 0.00 0.05 89 1017.7
20260502203803 21 105 6.4 14.5 0.03 0.00 0.03 89 1017.6
20260502203305 21 98 9.7 14.5 0.03 0.00 0.03 88 1017.6
20260502202804 21 102 4.8 12.9 0.03 0.00 0.03 88 1017.6
20260502202305 21 71 3.2 12.9 0.03 0.00 0.03 88 1017.6
20260502202026 21 350 6.4 11.3 0.00 0.00 0.00 88 1017.5
20260502201927 21 131 3.2 11.3 0.03 0.00 0.03 88 1017.5
20260502200804 21 92 1.6 14.5 0.00 0.00 0.00 88 1017.5
20260502200637 21 314 6.4 14.5 0.00 0.00 0.00 88 1017.5
20260502195804 21 36 3.2 17.7 0.00 0.00 0.00 89 1017.6
20260502195305 21 309 8.0 17.7 0.00 0.00 0.00 89 1017.3
20260502195138 21 325 8.0 17.7 0.00 0.00 0.00 89 1017.2
20260502194450 21 105 22.5 37.0 0.00 0.00 0.00 87 1017.0
20260502194443 21 62 8.0 32.2 0.00 0.00 0.00 88 1017.6
20260502194355 21 300 3.2 29.0 0.00 0.00 0.00 89 1017.5
20260502193658 21 96 20.9 41.8 0.00 0.00 0.00 86 1016.9
20260502193318 21 70 17.7 37.0 0.00 0.00 0.00 87 1017.3
20260502192018 22 68 25.7 51.5 0.00 0.00 0.00 83 1017.2
20260502191923 21 91 24.1 41.8 0.00 0.00 0.00 84 1017.0
20260502190804 22 71 32.2 51.5 0.00 0.00 0.00 80 1017.0
20260502190306 23 80 22.5 45.1 0.00 0.00 0.00 79 1017.1
20260502185805 23 69 22.5 38.6 0.00 0.00 0.00 77 1017.2
20260502185306 24 80 27.4 46.7 0.00 0.00 0.00 76 1017.2
20260502184805 24 69 24.1 46.7 0.00 0.00 0.00 75 1017.6
20260502184304 25 102 24.1 43.5 0.00 0.00 0.00 74 1017.1
20260502183803 25 190 24.1 35.4 0.00 0.00 0.00 71 1017.0
20260502183408 26 83 20.9 37.0 0.00 0.00 0.00 67 1017.2
20260502183338 26 59 16.1 33.8 0.00 0.00 0.00 69 1017.3
20260502182305 26 92 19.3 37.0 0.00 0.00 0.00 67 1017.3
20260502181807 26 78 16.1 37.0 0.00 0.00 0.00 69 1017.3
20260502181305 26 92 20.9 41.8 0.00 0.00 0.00 71 1017.7
20260502181217 25 67 24.1 41.8 0.00 0.00 0.00 71 1017.7
20260502180302 26 113 20.9 32.2 0.00 0.00 0.00 71 1017.7
20260502180157 26 89 19.3 37.0 0.00 0.00 0.00 71 1017.8
20260502170304 26 64 16.1 37.0 0.00 0.00 0.00 68 1018.6
20260502170150 26 36 24.1 38.6 0.00 0.00 0.00 68 1018.5
20260502164304 26 70 17.7 32.2 0.00 0.00 0.00 64 1018.6
20260502163804 26 67 17.7 32.2 0.00 0.00 0.00 64 1018.7
20260502163302 26 59 16.1 32.2 0.00 0.00 0.00 63 1018.6
20260502162802 26 67 19.3 32.2 0.00 0.00 0.00 61 1018.7
20260502162305 27 86 17.7 35.4 0.00 0.00 0.00 64 1018.7
20260502161803 27 89 17.7 35.4 0.00 0.00 0.00 63 1018.8
20260502161302 27 72 20.9 29.0 0.00 0.00 0.00 63 1018.9
20260502160803 27 84 14.5 29.0 0.00 0.00 0.00 64 1018.9
20260502160303 27 99 16.1 27.4 0.00 0.00 0.00 63 1018.9
20260502151805 25 56 22.5 32.2 0.00 0.00 0.00 73 1019.0
20260502151304 25 97 14.5 30.6 0.00 0.00 0.00 74 1019.1
20260502150804 25 98 14.5 33.8 0.00 0.00 0.00 73 1019.2
20260502150304 25 42 16.1 33.8 0.00 0.00 0.00 74 1019.2
20260502140125 23 108 12.9 27.4 0.00 0.00 0.00 77 1018.7
20260502130303 22 147 8.0 16.1 0.00 0.00 0.00 80 1018.2
20260502123802 21 159 6.4 14.5 0.00 0.00 0.00 83 1017.7
20260502123304 21 116 4.8 14.5 0.00 0.00 0.00 84 1017.6
20260502123127 21 151 6.4 14.5 0.00 0.00 0.00 86 1017.7
20260502122306 21 150 6.4 9.7 0.00 0.00 0.00 87 1017.7
20260502121802 21 123 4.8 8.0 0.00 0.00 0.00 87 1017.7
20260502121609 21 121 3.2 11.3 0.00 0.00 0.00 88 1017.8
20260502120757 20 119 6.4 11.3 0.00 0.00 0.00 88 1017.7
20260502120257 20 101 3.2 6.4 0.00 0.00 0.00 89 1017.7
20260502115755 20 98 3.2 9.7 0.00 0.00 0.00 90 1017.9
20260502115250 20 97 4.8 14.5 0.00 0.00 0.00 90 1018.0
20260502114745 20 94 6.4 14.5 0.00 0.00 0.00 91 1018.0
20260502114241 20 84 9.7 14.5 0.00 0.00 0.00 91 1018.0
20260502114053 20 102 8.0 20.9 0.00 0.00 0.00 93 1018.0
20260502113239 20 70 12.9 20.9 0.00 0.00 0.00 93 1017.9
20260502112734 20 66 6.4 11.3 0.00 0.00 0.00 93 1017.9
20260502112555 20 78 6.4 11.3 0.00 0.00 0.00 93 1017.8
20260502112026 20 91 6.4 12.9 0.00 0.00 0.00 93 1017.8
20260502111234 20 87 6.4 12.9 0.00 0.00 0.00 93 1017.6
20260502111138 20 63 4.8 19.3 0.00 0.00 0.00 92 1017.1
20260502110801 20 68 6.4 12.9 0.00 0.00 0.00 93 1017.5
20260502110402 20 74 6.4 17.7 0.00 0.00 0.00 93 1017.3
20260502110110 20 67 8.0 19.3 0.00 0.00 0.00 93 1017.1
20260502105745 20 44 6.4 17.7 0.00 0.00 0.00 93 1017.3
20260502105418 20 95 9.7 17.7 0.00 0.00 0.00 92 1017.2
20260502105334 20 57 9.7 17.7 0.00 0.00 0.00 92 1017.3
20260502103231 20 53 3.2 9.7 0.00 0.00 0.00 94 1017.0
20260502102732 20 336 3.2 4.8 0.00 0.00 0.00 94 1016.9
20260502102234 20 336 1.6 3.2 0.00 0.00 0.00 94 1016.9
20260502101733 20 335 0.0 0.0 0.00 0.00 0.00 94 1016.8
20260502101233 20 335 0.0 6.4 0.00 0.00 0.00 94 1016.7
20260502100732 20 335 3.2 6.4 0.00 0.00 0.00 94 1016.6
20260502100232 20 334 1.6 4.8 0.00 0.00 0.00 95 1016.6
20260502091210 20 325 0.0 0.0 0.00 0.00 0.00 94 1016.1
20260502090706 20 325 0.0 0.0 0.00 0.00 0.00 94 1016.1
20260502090206 20 325 0.0 0.0 0.00 0.00 0.00 95 1016.1
20260502071204 20 325 3.2 4.8 0.00 0.00 0.00 94 1016.8
20260502070703 20 325 3.2 4.8 0.00 0.00 0.00 94 1017.0
20260502070204 20 325 3.2 6.4 0.00 0.00 0.00 94 1017.1
20260502065706 20 325 3.2 6.4 0.00 0.00 0.00 94 1017.2
20260502065205 20 325 3.2 8.0 0.00 0.00 0.00 94 1017.3
20260502064705 20 325 3.2 8.0 0.00 0.00 0.00 94 1017.5
20260502064650 20 325 1.6 4.8 0.00 0.00 0.00 93 1017.2
20260502064309 20 325 4.8 8.0 0.00 0.00 0.00 94 1017.5
20260502063914 20 325 3.2 6.4 0.00 0.00 0.00 93 1017.5
20260502063311 20 325 3.2 6.4 0.00 0.00 0.00 93 1017.5
20260502062509 20 324 1.6 4.8 0.00 0.00 0.00 93 1017.1
20260502062152 20 324 1.6 6.4 0.00 0.00 0.00 93 1017.3
20260502061759 20 324 0.0 4.8 0.00 0.00 0.00 93 1017.2
20260502060704 20 324 1.6 6.4 0.00 0.00 0.00 93 1017.3
20260502060205 20 325 3.2 8.0 0.00 0.00 0.00 93 1017.6
20260502055841 20 322 3.2 9.7 0.00 0.00 0.00 93 1017.8
20260502055805 20 323 3.2 9.7 0.00 0.00 0.00 93 1017.7
20260502054703 20 319 4.8 8.0 0.00 0.00 0.00 93 1017.9
20260502054158 21 319 3.2 6.4 0.00 0.00 0.00 93 1017.9
20260502054022 20 319 3.2 6.4 0.00 0.00 0.00 93 1017.9
20260502053153 20 318 3.2 6.4 0.00 0.00 0.00 93 1017.9
20260502052650 21 317 1.6 6.4 0.00 0.00 0.00 93 1018.1
20260502052145 21 318 3.2 6.4 0.00 0.00 0.00 93 1018.3
20260502051635 21 316 1.6 6.4 0.00 0.00 0.00 93 1018.5
20260502051132 21 316 1.6 8.0 0.00 0.00 0.00 93 1018.6
20260502050633 21 316 4.8 8.0 0.00 0.00 0.00 93 1018.7
20260502050120 21 314 3.2 8.0 0.00 0.00 0.00 93 1018.8
20260502045621 21 314 6.4 8.0 0.00 0.00 0.00 93 1018.8
20260502045112 21 316 3.2 8.0 0.00 0.00 0.00 93 1018.8
20260502045041 21 313 6.4 9.7 0.00 0.00 0.00 92 1018.7
20260502045036 21 315 3.2 9.7 0.00 0.00 0.00 92 1018.8
20260502043604 21 324 3.2 8.0 0.00 0.00 0.00 92 1018.6
20260502043106 21 325 3.2 6.4 0.00 0.00 0.00 92 1018.5
20260502042602 21 325 3.2 6.4 0.00 0.00 0.00 92 1018.6
20260502042104 21 325 1.6 6.4 0.00 0.00 0.00 92 1018.6
20260502042058 21 324 3.2 8.0 0.00 0.00 0.00 93 1018.6
20260502042052 21 324 0.0 4.8 0.00 0.00 0.00 93 1018.7
20260502040603 21 324 4.8 8.0 0.00 0.00 0.00 93 1018.6
20260502035604 21 323 0.0 6.4 0.00 0.00 0.00 93 1018.7
20260502035103 21 323 3.2 9.7 0.00 0.00 0.00 93 1018.6
20260502034916 21 323 3.2 9.7 0.00 0.00 0.00 92 1018.6
20260502034103 21 323 4.8 9.7 0.00 0.00 0.00 92 1018.5
20260502033724 21 308 6.4 12.9 0.00 0.00 0.00 92 1018.6
20260502033657 21 311 4.8 8.0 0.00 0.00 0.00 92 1018.5
20260502032606 21 318 4.8 12.9 0.00 0.00 0.00 92 1018.6
20260502032559 21 316 6.4 12.9 0.00 0.00 0.00 91 1018.6
20260502032555 21 328 8.0 12.9 0.00 0.00 0.00 92 1018.6
20260502032246 21 338 6.4 14.5 0.00 0.00 0.00 92 1018.6
20260502032158 21 315 6.4 14.5 0.00 0.00 0.00 92 1018.6
20260502030104 21 300 4.8 12.9 0.00 0.00 0.00 92 1018.6
20260502025755 21 340 3.2 8.0 0.00 0.00 0.00 92 1018.6
20260502025706 21 339 6.4 9.7 0.00 0.00 0.00 91 1018.7
20260502024605 21 9 6.4 8.0 0.00 0.00 0.00 92 1018.6
20260502024421 21 15 0.0 4.8 0.00 0.00 0.00 92 1018.6
20260502023603 21 15 1.6 6.4 0.00 0.00 0.00 91 1018.3
20260502023413 21 15 0.0 6.4 0.00 0.00 0.00 91 1018.3
20260502022603 21 15 1.6 4.8 0.00 0.00 0.00 91 1018.1
20260502022104 21 13 0.0 1.6 0.00 0.00 0.00 91 1018.1
20260502021603 21 13 0.0 3.2 0.00 0.00 0.00 91 1018.1
20260502021105 21 13 0.0 4.8 0.00 0.00 0.00 91 1018.0
20260502020604 21 13 3.2 4.8 0.00 0.00 0.00 91 1017.9
20260502020240 21 13 1.6 4.8 0.00 0.00 0.00 91 1017.6
20260502020158 21 13 1.6 3.2 0.00 0.00 0.00 91 1017.8
20260502015104 21 13 3.2 4.8 0.00 0.00 0.00 90 1017.2
20260502014557 21 13 1.6 4.8 0.00 0.00 0.00 90 1017.0